カタログに戻る

SPACEMOBILE-SSR01 DEB

運用中VLEO
NORAD 62369·DEBRIS·🇺🇸 United States

打ち上げ Sep 12, 2024 から Cape Canaveral Space Force Station

Loading…

次のパス (今後24時間)

TLE

最新Source: Space-Track

元期: Sep 14, 2026, 06:46 UTC

1 62369U 24163F   26257.28220605  .00007141  00000-0  20901-3 0  9997
2 62369  52.9927 220.2123 0009328  86.4165 273.7902 15.36339794100197

AllMySatでSPACEMOBILE-SSR01 DEBをリアルタイム追跡

Download on the App Store